This is the latest recevied weather packets stored in our database for station/object DJ4CK-1. If no packets are shown the sender has not sent any weather packets the latest 1 day(s).
| Time | Temp. | Humidity | Pressure | Rain* | Wind** | Luminosity | Snow |
|---|---|---|---|---|---|---|---|
| 1778012283 | 13.89° C | 79% | 1007.8 hPa | 0 mm | 1.34 m/s, 297° | - | - |
| 1778012223 | 13.89° C | 78% | 1007.8 hPa | 0 mm | 0.89 m/s, 294° | - | - |
| 1778012163 | 13.89° C | 80% | 1007.8 hPa | 0 mm | 0.89 m/s, 290° | - | - |
| 1778012103 | 13.89° C | 78% | 1007.8 hPa | 0 mm | 0.89 m/s, 286° | - | - |
| 1778012043 | 13.89° C | 78% | 1007.8 hPa | 0 mm | 0.89 m/s, 285° | - | - |
| 1778011984 | 13.89° C | 78% | 1007.8 hPa | 0 mm | 0.89 m/s, 284° | - | - |
| 1778011927 | 13.89° C | 79% | 1007.8 hPa | 0 mm | 0.89 m/s, 282° | - | - |
| 1778011863 | 13.89° C | 78% | 1007.8 hPa | 0 mm | 0.89 m/s, 279° | - | - |
| 1778011803 | 13.89° C | 78% | 1007.8 hPa | 0 mm | 0.89 m/s, 276° | - | - |
| 1778011743 | 13.89° C | 77% | 1007.8 hPa | 0 mm | 0.89 m/s, 272° | - | - |
| 1778011683 | 13.89° C | 77% | 1007.8 hPa | 0 mm | 0.89 m/s, 269° | - | - |
| 1778011623 | 14.44° C | 75% | 1007.8 hPa | 0 mm | 0.89 m/s, 266° | - | - |
| 1778011564 | 14.44° C | 74% | 1007.8 hPa | 0 mm | 1.34 m/s, 263° | - | - |
| 1778011504 | 14.44° C | 74% | 1007.6 hPa | 0 mm | 1.34 m/s, 261° | - | - |
| 1778011443 | 14.44° C | 73% | 1007.6 hPa | 0 mm | 1.34 m/s, 257° | - | - |
| 1778011383 | 14.44° C | 72% | 1007.6 hPa | 0 mm | 1.79 m/s, 253° | - | - |
| 1778011323 | 14.44° C | 72% | 1007.6 hPa | 0 mm | 1.79 m/s, 249° | - | - |
| 1778011263 | 14.44° C | 71% | 1007.5 hPa | 0 mm | 2.24 m/s, 248° | - | - |
| 1778011203 | 14.44° C | 70% | 1007.5 hPa | 0 mm | 2.24 m/s, 247° | - | - |
| 1778011143 | 14.44° C | 70% | 1007.5 hPa | 0 mm | 2.68 m/s, 246° | - | - |
| 1778011083 | 14.44° C | 70% | 1007.5 hPa | 0 mm | 2.68 m/s, 246° | - | - |
| 1778011023 | 15° C | 69% | 1007.5 hPa | 0 mm | 2.24 m/s, 246° | - | - |
| 1778010963 | 15° C | 68% | 1007.5 hPa | 0 mm | 1.79 m/s, 245° | - | - |
| 1778010903 | 15° C | 67% | 1007.4 hPa | 0 mm | 1.34 m/s, 246° | - | - |
| 1778010844 | 15° C | 67% | 1007.4 hPa | 0 mm | 1.34 m/s, 245° | - | - |
* Rain latest hour (hover to see other rain measurements)
** Current wind speed in m/s (hover to see current wind gust speed)